Kayseri, Turkey

12:26 AM +03 on June 27, 2017 (GMT +0300)
Erkilet Air Base

Weather History for LTAU - May, 2013

Change the Weather History Date:

Sunday, May 19, 2013

  Actual Average Record
Temperature  
Mean Temperature 60 °F -  
Max Temperature 75 °F 75 °F 86 °F (2015)
Min Temperature 44 °F 48 °F 37 °F (1999)
Degree Days  
Heating Degree Days 6    
Growing Degree Days 10 (Base 50)    
Moisture  
Dew Point 45 °F    
Average Humidity 57    
Maximum Humidity 94    
Minimum Humidity 17    
Precipitation  
Precipitation 0.00 in - - ()
Sea Level Pressure  
Sea Level Pressure 30.01 in    
Wind  
Wind Speed 5 mph ()    
Max Wind Speed 13 mph    
Max Gust Speed -    
Visibility 6.7 miles    
Events      
Averages and records for this station are not official NWS values.
T = Trace of Precipitation, MM = Missing Value Source: Averaged Metar Reports

Daily Weather History Graph

Daily Weather History Graph

Search for Another Location

Airport or City:

Trip Planner

Search our weather history database for the weather conditions in past years. The results will help you decide how hot, cold, wet, or windy it might be!

Date:

Astronomy

May. 19, 2013 Rise Set
Actual Time 5:22 AM EEST 7:47 PM EEST
Civil Twilight 4:52 AM EEST 8:17 PM EEST
Nautical Twilight 4:14 AM EEST 8:55 PM EEST
Astronomical Twilight 3:33 AM EEST 9:36 PM EEST
Moon 1:33 PM EEST (5/19) 1:31 AM EEST (5/19)
Length of Visible Light 15h 25m
Length of Day
14h 24m
Waxing Gibbous, 62% of the Moon is Illuminated
May 19
Waxing Gibbous
May 25
Full
May 31
Last Quarter
Jun 8
New
Jun 16
First Quarter

Hourly Weather History & Observations

Time (EEST) Temp. Dew Point Humidity Pressure Visibility Wind Dir Wind Speed Gust Speed Precip Events Conditions
12:20 AM 57.2 °F 48.2 °F 72% 30.06 in 6.2 mi NE 9.2 mph - N/A   Scattered Clouds
12:50 AM 55.4 °F 48.2 °F 77% 30.06 in 6.2 mi NNE 6.9 mph - N/A   Scattered Clouds
1:20 AM 55.4 °F 48.2 °F 77% 30.06 in 6.2 mi North 6.9 mph - N/A   Scattered Clouds
1:50 AM 55.4 °F 48.2 °F 77% 30.06 in 6.2 mi North 4.6 mph - N/A   Scattered Clouds
2:20 AM 51.8 °F 46.4 °F 82% 30.06 in 6.2 mi NNE 2.3 mph - N/A   Scattered Clouds
2:50 AM 51.8 °F 46.4 °F 82% 30.06 in 6.2 mi NE 3.5 mph - N/A   Scattered Clouds
3:00 AM 51 °F 47 °F 82%  in 12 mi NE 3.5 mph - -   Partly Cloudy
3:20 AM 50.0 °F 46.4 °F 87% 30.06 in 6.2 mi NE 1.2 mph - N/A   Partly Cloudy
3:50 AM 50.0 °F 46.4 °F 87% 30.06 in 6.2 mi NNE 1.2 mph - N/A   Partly Cloudy
4:20 AM 46.4 °F 42.8 °F 87% 30.06 in 6.2 mi NNE 1.2 mph - N/A   Partly Cloudy
4:50 AM 46.4 °F 44.6 °F 93% 30.06 in 6.2 mi Calm Calm - N/A   Partly Cloudy
5:20 AM 46.4 °F 42.8 °F 87% 30.06 in 6.2 mi NNE 2.3 mph - N/A   Scattered Clouds
5:50 AM 46.4 °F 44.6 °F 93% 30.06 in 6.2 mi Calm Calm - N/A   Scattered Clouds
6:20 AM 50.0 °F 48.2 °F 94% 30.06 in 6.2 mi NNE 2.3 mph - N/A   Scattered Clouds
6:50 AM 53.6 °F 50.0 °F 88% 30.06 in 6.2 mi NNE 2.3 mph - N/A   Scattered Clouds
7:20 AM 55.4 °F 48.2 °F 77% 30.06 in 6.2 mi Calm Calm - N/A   Scattered Clouds
7:50 AM 60.8 °F 50.0 °F 68% 30.06 in 6.2 mi Calm Calm - N/A   Scattered Clouds
8:20 AM 60.8 °F 50.0 °F 68% 30.06 in - Calm Calm - N/A   Clear
8:50 AM 64.4 °F 50.0 °F 59% 30.06 in - Calm Calm - N/A   Clear
9:00 AM 64 °F 50 °F 50%  in 12 mi Calm Calm - -   Clear
9:20 AM 66.2 °F 50.0 °F 56% 30.06 in 6.2 mi Variable 2.3 mph - N/A   Scattered Clouds
9:50 AM 68.0 °F 51.8 °F 56% 30.06 in 6.2 mi Variable 2.3 mph - N/A   Scattered Clouds
10:20 AM 69.8 °F 50.0 °F 49% 30.04 in 6.2 mi WSW 4.6 mph - N/A   Scattered Clouds
10:50 AM 71.6 °F 48.2 °F 43% 30.04 in 6.2 mi West 5.8 mph - N/A   Scattered Clouds
11:20 AM 71.6 °F 42.8 °F 35% 30.04 in 6.2 mi WNW 8.1 mph - N/A   Scattered Clouds
11:50 AM 71.6 °F 44.6 °F 38% 30.04 in 6.2 mi WNW 5.8 mph - N/A   Scattered Clouds
12:20 PM 71.6 °F 42.8 °F 35% 30.04 in 6.2 mi WNW 9.2 mph - N/A   Scattered Clouds
12:50 PM 73.4 °F 42.8 °F 33% 30.01 in 6.2 mi West 9.2 mph - N/A   Scattered Clouds
1:20 PM 73.4 °F 42.8 °F 33% 30.01 in 6.2 mi West 9.2 mph - N/A   Scattered Clouds
1:50 PM 75.2 °F 41.0 °F 29% 30.01 in 6.2 mi NNW 9.2 mph - N/A   Scattered Clouds
2:20 PM 73.4 °F 39.2 °F 29% 29.98 in 6.2 mi NNW 9.2 mph - N/A   Scattered Clouds
2:50 PM 75.2 °F 39.2 °F 27% 29.98 in 6.2 mi WSW 4.6 mph - N/A   Scattered Clouds
3:00 PM 74 °F 38 °F 17%  in 12 mi WSW 4.6 mph - -   Partly Cloudy
3:20 PM 75.2 °F 41.0 °F 29% 29.98 in 6.2 mi NW 9.2 mph - N/A   Mostly Cloudy
3:50 PM 75.2 °F 37.4 °F 25% 29.95 in 6.2 mi West 6.9 mph - N/A   Mostly Cloudy
4:20 PM 75.2 °F 39.2 °F 27% 29.95 in 6.2 mi West 10.4 mph - N/A   Scattered Clouds
4:50 PM 75.2 °F 37.4 °F 25% 29.95 in 6.2 mi West 9.2 mph - N/A   Mostly Cloudy
5:20 PM 73.4 °F 39.2 °F 29% 29.95 in 6.2 mi NNW 11.5 mph - N/A   Mostly Cloudy
5:50 PM 73.4 °F 41.0 °F 31% 29.92 in 6.2 mi North 10.4 mph - N/A   Scattered Clouds
6:20 PM 71.6 °F 42.8 °F 35% 29.92 in 6.2 mi North 9.2 mph - N/A   Scattered Clouds
6:50 PM 71.6 °F 42.8 °F 35% 29.95 in 6.2 mi North 6.9 mph - N/A   Scattered Clouds
7:20 PM 69.8 °F 42.8 °F 38% 29.95 in 6.2 mi North 5.8 mph - N/A   Scattered Clouds
7:50 PM 66.2 °F 42.8 °F 43% 29.95 in 6.2 mi NNE 6.9 mph - N/A   Partly Cloudy
8:20 PM 62.6 °F 46.4 °F 55% 29.95 in 6.2 mi ENE 12.7 mph - N/A   Partly Cloudy
8:50 PM 60.8 °F 46.4 °F 59% 29.98 in 6.2 mi NE 9.2 mph - N/A   Partly Cloudy
9:00 PM 61 °F 46 °F 46%  in 12 mi NE 9.2 mph - -   Scattered Clouds
9:20 PM 59.0 °F 46.4 °F 63% 29.98 in - North 4.6 mph - N/A   Clear
9:50 PM 57.2 °F 46.4 °F 67% 29.98 in - Calm Calm - N/A   Clear
10:20 PM 55.4 °F 46.4 °F 72% 29.98 in - NE 5.8 mph - N/A   Clear
10:50 PM 55.4 °F 46.4 °F 72% 29.98 in - ENE 5.8 mph - N/A   Clear
11:20 PM 57.2 °F 46.4 °F 67% 29.98 in - Calm Calm - N/A   Clear
11:50 PM 57.2 °F 46.4 °F 67% 29.98 in - NNE 3.5 mph - N/A   Clear